[Iaude] MPEC B80: 2012 BC124 = 2019 BD1 [a=2.30, e=0.48, i=41.8, H=19.8]

mpec at mpcdb1.cfa.harvard.edu mpec at mpcdb1.cfa.harvard.edu
Fri Jan 25 18:17:16 EST 2019


M.P.E.C. 2019-B80                                Issued 2019 Jan. 25, 23:13 UT
 
     The Minor Planet Electronic Circulars contain information on unusual
         minor planets and routine data on comets.  They are published
    on behalf of Division F of the International Astronomical Union by the
          Minor Planet Center, Smithsonian Astrophysical Observatory,
                          Cambridge, MA 02138, U.S.A.

             Prepared using the Tamkin Foundation Computer Network

                              MPC at CFA.HARVARD.EDU
            URL https://www.minorplanetcenter.net/    ISSN 1523-6714


                             2012 BC124 = 2019 BD1
 
                           Revision to MPEC 2012-C08
 
Orbital elements:
2012 BC124 = 2019 BD1                                    Earth MOID = 0.2429 AU
Epoch 2019 Apr. 27.0 TT = JDT 2458600.5                 MPC
M  15.48371              (2000.0)            P               Q
n   0.28196528     Peri.  200.34104     -0.84547473     -0.25024877
a   2.3032388      Node   314.89120     +0.53360468     -0.43054139
e   0.4756838      Incl.   41.75079     -0.02094119     -0.86718491
P   3.50           H   19.8           G   0.15           U   2
Residuals in seconds of arc
120130 703  0.5-  0.4-    120201 J95  0.1+  0.1-    120221 130 (1.7+  1.2-)
120130 703  0.6+  1.2-    120201 J95  0.2-  0.2-    120221 130 (0.9+  1.9+)
120130 703  0.2+  0.0     120201 J95  0.1+  0.2-    120221 203  0.2+  0.0
120130 703  1.5-  0.4+    120201 J41  0.3-  0.4+    120221 203  0.5+  0.0
120130 H01  0.1-  0.4+    120201 J41  0.1-  0.2+    120221 204  0.0   0.1-
120130 H01  0.1-  0.3+    120201 J41  0.2+  0.7+    120221 204  0.1-  0.0
120130 H01  0.1-  0.2+    120201 970  0.4+  0.2+    120222 H21  0.2+  0.2-
120130 H01  0.0   0.4+    120201 970  0.2-  0.8+    120222 H21  0.0   0.0
120130 703 (0.9-  2.9+)   120204 C32  0.2-  0.2+    120222 H21  0.1-  0.2-
120130 703  0.8-  1.0-    120204 C32  0.1-  0.2-    120222 H21  0.1+  0.1-
120130 703  0.3-  0.4+    120204 C32  0.0   0.2+    120227 474  0.1+  0.1-
120130 703  0.6-  0.5-    120204 C32  0.3-  0.1+    120227 474  0.6-  0.3+
120130 718 (2.4+  0.4+)   120206 H21  0.2+  0.3+    120227 474  0.2-  0.2+
120130 718  0.2+  0.7-    120206 H21  0.2-  0.1+    120306 807  0.3+  0.2-
120130 718  1.1-  0.3+    120206 H21  0.0   0.2+    120306 807  0.2+  0.2-
120130 300  0.6+  0.4+    120206 204  0.2-  0.4-    120308 807  0.2+  0.0
120130 300  0.8+  0.0     120206 204  0.4-  0.2+    120308 807  0.3+  0.1+
120130 300  0.7-  0.2-    120206 204  0.5-  0.3-    190123 I41  0.8-  0.8-
120130 300  0.3+  0.3+    120210 I17 (0.8+  2.7+)   190123 I41  0.8-  0.8-
120130 J95  0.3+  0.1-    120210 I17 (0.9+  2.4-)   190123 I41  0.8-  0.9-
120130 J95  1.3+  0.6-    120210 I17  0.9-  0.1+    190123 I41  0.7-  0.6-
120130 B03  0.1-  0.0     120213 H21  0.1+  0.2-    190124 703 (0.5-  1.7+)
120130 J95  0.4+  0.1+    120213 H21  0.0   0.1-    190124 703  0.1-  0.3+
120130 B03  0.3+  0.2+    120213 850  1.0+  0.8-    190124 703  0.1+  1.0+
120130 B03  0.1+  0.3+    120213 H21  0.0   0.2-    190124 I52  0.0   0.1-
120130 B03  0.1+  0.3+    120213 H21  0.1+  0.3-    190124 I52  0.0   0.2+
120130 B03  0.2-  0.6+    120213 H21  0.1+  0.3-    190124 I52  0.3+  0.1+
120130 595  0.1-  0.7-    120213 H21  0.1-  0.4-    190124 I52  0.0   0.2-
120130 595  0.1-  0.2+    120213 850  0.1+  0.5-    190124 291  0.2+  0.5+
120131 H01  0.2-  0.3+    120213 850  0.0   0.4-    190124 291  0.2+  0.1+
120131 H01  0.1-  0.5+    120213 850  0.4+  0.3+    190124 P93  0.7+  0.2+
120131 H01  0.2-  0.3+    120213 850  0.3+  0.1-    190124 P93  0.7+  0.1+
120131 H01  0.2-  0.3+    120213 850  0.0   0.5-    190124 P93  1.1+  0.4+
120131 854  0.2-  0.6+    120213 850  0.3-  0.4-    190124 L01  0.3-  0.1+
120131 854  0.2+  1.1+    120214 I17 (1.4-  2.0-)   190124 L01  0.1-  0.0
120131 854  0.4-  0.1+    120214 I17 (1.3+  3.0+)   190124 L01  0.2-  0.2+
120131 900  0.3-  0.5-    120214 I17  0.2-  0.6+    190124 L01  0.1-  0.1+
120131 900  0.2-  0.1+    120214 A24  0.0   0.4+    190124 L01  0.0   0.0
120131 900  0.2+  0.3-    120214 A24  0.0   0.0     190124 L01  0.1-  0.1-
120131 355  0.2+  1.1+    120214 A24  0.1-  0.2-    190124 595  0.4-  0.2-
120131 355  0.5+  0.2+    120214 A24  1.0-  0.1+    190124 595  0.2-  0.0
120131 355  0.1-  0.8+    120214 A24  1.1-  0.4+    190124 K38  0.1-  0.0
120131 510  0.2+  0.5+    120216 A24  0.4+  0.6+    190124 K38  0.2+  0.1-
120131 510  0.0   0.7-    120216 203  1.0+  0.8+    190124 K38  0.4-  0.1+
120131 510  0.2-  0.1-    120216 A24  0.1+  0.7+    190124 K38  0.1+  0.3-
120131 J95  0.0   0.1-    120216 A24 (2.0+  1.1-)   190124 K38  0.2+  0.4-
120131 J95  0.1-  0.1+    120216 203  0.6+  0.6+    190125 204  0.1+  0.3-
120131 J95  0.4-  0.2+    120217 H21  0.4-  0.0     190125 204  0.2-  0.2-
120131 510  0.1-  0.3+    120217 H21  0.3-  0.0     190125 204  0.4-  0.1-
120131 510  0.2-  0.1-    120217 H21  0.3-  0.3-    190125 I52  0.1-  0.1+
120201 G96  0.2-  0.1-    120217 A24  0.4+  0.0     190125 I52  0.5+  0.3+
120201 G96  0.1-  0.0     120217 A24  0.3-  0.4-    190125 I52  0.1-  0.3-
120201 G96  0.4-  0.1-    120217 A24  0.3-  0.5-    190125 I52  0.0   0.2+
120201 G96  0.1-  0.0     120217 A24  0.6+  0.8+    190125 G96  0.2+  0.2+
120201 970  0.1+  0.1-    120218 H21  0.1-  0.0     190125 G96  0.2-  0.0
120201 970  0.4+  0.3-    120218 H21  0.2-  0.1-    190125 G96  0.3-  0.1+
120201 970  0.2-  0.3-    120218 H21  0.2+  0.1-    190125 G96  0.1-  0.1+
120201 970  0.1+  0.1-    120219 H21  0.1+  0.1-
120201 970  0.1-  0.0     120219 H21  0.3-  0.2+

Ephemeris:
2012 BC124               a,e,i = 2.30, 0.48, 42                  q = 1.2076
Date    TT    R. A. (2000) Decl.     Delta      r     Elong.  Phase     V
2018 12 26    11 44 51.0 +60 18 38   0.6698  1.3977   114.1    40.0    21.2
...
2019 01 10    11 11 17.0 +57 47 42   0.4858  1.3279   125.9    36.9    20.3
...
2019 01 18    10 31 48.6 +54 23 29   0.3955  1.2958   135.5    32.2    19.7
...
2019 01 24    09 52 17.6 +49 22 27   0.3360  1.2744   145.1    26.2    19.1
2019 01 25    09 45 07.7 +48 13 50   0.3272  1.2711   146.9    25.0    19.0
2019 01 26    09 37 51.7 +46 58 58   0.3187  1.2679   148.8    23.7    18.9
...
2019 02 01    08 53 50.5 +37 05 31   0.2776  1.2500   160.2    15.5    18.4
...
2019 02 09    08 01 45.2 +18 20 39   0.2579  1.2308   159.0    16.7    18.2
...
2019 02 24    07 02 28.4 -13 08 00   0.3341  1.2100   124.4    42.4    19.5

Gareth V. Williams           (C) Copyright 2019 MPC           M.P.E.C. 2019-B80



More information about the Iaude mailing list